Weather History for KTNB - February, 2013

Change the Weather History Date:

Sunday, February 24, 2013

  Actual Average (KGEV) Record (KGEV)
Temperature  
Mean Temperature 40 °F -  
Max Temperature 46 °F 47 °F 68 °F (2012)
Min Temperature 34 °F 27 °F 8 °F (1967)
Degree Days  
Heating Degree Days 25    
Moisture  
Dew Point 25 °F    
Average Humidity 58    
Maximum Humidity 93    
Minimum Humidity 32    
Precipitation  
Precipitation 0.00 in - - ()
Sea Level Pressure  
Sea Level Pressure 29.92 in    
Wind  
Wind Speed 15 mph (WNW)    
Max Wind Speed 25 mph    
Max Gust Speed 39 mph    
Visibility 10 miles    
Events      
Averages and records for this station are not official NWS values.
T = Trace of Precipitation, MM = Missing Value Source: NWS Daily Summary

Daily Weather History Graph

Daily Weather History Graph

Search for Another Location

Airport or City:

Trip Planner

Search our weather history database for the weather conditions in past years. The results will help you decide how hot, cold, wet, or windy it might be!

Date:

Astronomy

Feb. 24, 2013 Rise Set
Actual Time 7:03 AM EST 6:16 PM EST
Civil Twilight 6:37 AM EST 6:42 PM EST
Nautical Twilight 6:07 AM EST 7:12 PM EST
Astronomical Twilight 5:37 AM EST 7:42 PM EST
Moon 5:26 PM EST (2/24) 5:58 AM EST (2/24)
Length of Visible Light 12h 05m
Length of Day
11h 13m
Waxing Gibbous, 99% of the Moon is Illuminated
Feb 24
Waxing Gibbous
Feb 25
Full
Mar 4
Last Quarter
Mar 11
New
Mar 19
First Quarter

Hourly Weather History & Observations

Time (EST) Temp. Windchill Dew Point Humidity Pressure Visibility Wind Dir Wind Speed Gust Speed Precip Events Conditions
12:15 AM 42.6 °F 34.9 °F 40.6 °F 93% 29.83 in 10.0 mi WNW 16.1 mph 20.7 mph N/A   Clear
12:35 AM 42.8 °F 34.0 °F 39.7 °F 89% 29.84 in 10.0 mi WNW 20.7 mph 26.5 mph N/A   Scattered Clouds
12:55 AM 43.0 °F 37.7 °F 40.3 °F 90% 29.85 in 10.0 mi West 9.2 mph 21.9 mph N/A   Mostly Cloudy
1:15 AM 43.0 °F 38.2 °F 40.5 °F 91% 29.85 in 10.0 mi WNW 8.1 mph 18.4 mph N/A   Overcast
1:35 AM 43.2 °F - 40.3 °F 90% 29.84 in 10.0 mi Calm Calm - N/A   Overcast
1:55 AM 43.0 °F - 40.3 °F 90% 29.83 in 10.0 mi Calm Calm - N/A   Overcast
2:15 AM 42.8 °F 36.2 °F 40.3 °F 91% 29.84 in 10.0 mi NW 12.7 mph 21.9 mph N/A   Overcast
2:35 AM 42.3 °F 36.3 °F 39.4 °F 90% 29.83 in 10.0 mi WNW 10.4 mph 21.9 mph N/A   Scattered Clouds
2:55 AM 42.3 °F 34.8 °F 39.7 °F 91% 29.84 in 10.0 mi WNW 15.0 mph 19.6 mph N/A   Mostly Cloudy
3:15 AM 41.7 °F 36.1 °F 38.7 °F 89% 29.83 in 10.0 mi WNW 9.2 mph 18.4 mph N/A   Mostly Cloudy
3:35 AM 41.4 °F 33.0 °F 37.8 °F 87% 29.83 in 10.0 mi WNW 17.3 mph 25.3 mph N/A   Mostly Cloudy
3:55 AM 40.5 °F 32.5 °F 36.7 °F 86% 29.83 in 10.0 mi NW 15.0 mph 23.0 mph N/A   Mostly Cloudy
4:15 AM 40.1 °F 31.0 °F 34.9 °F 82% 29.83 in 10.0 mi NW 18.4 mph 28.8 mph N/A   Mostly Cloudy
4:35 AM 39.2 °F 30.8 °F 32.7 °F 78% 29.83 in 10.0 mi WNW 15.0 mph 21.9 mph N/A   Scattered Clouds
5:15 AM 37.6 °F 29.1 °F 31.3 °F 78% 29.85 in 10.0 mi West 13.8 mph 21.9 mph N/A   Clear
5:35 AM 37.4 °F 29.3 °F 30.7 °F 77% 29.85 in 10.0 mi West 12.7 mph 24.2 mph N/A   Clear
5:55 AM 37.0 °F 27.0 °F 30.6 °F 77% 29.86 in 10.0 mi West 18.4 mph 25.3 mph N/A   Clear
6:15 AM 36.5 °F 25.7 °F 30.2 °F 78% 29.87 in 10.0 mi WNW 20.7 mph 25.3 mph N/A   Clear
6:35 AM 36.0 °F 26.7 °F 30.2 °F 80% 29.87 in 10.0 mi WNW 15.0 mph 25.3 mph N/A   Scattered Clouds
6:55 AM 35.4 °F 24.3 °F 29.3 °F 78% 29.87 in 10.0 mi WNW 20.7 mph 27.6 mph N/A   Scattered Clouds
7:15 AM 35.4 °F 24.0 °F 29.8 °F 80% 29.88 in 10.0 mi WNW 21.9 mph 28.8 mph N/A   Scattered Clouds
7:35 AM 35.1 °F 23.0 °F 28.8 °F 78% 29.88 in 10.0 mi WNW 24.2 mph 31.1 mph N/A   Scattered Clouds
7:55 AM 34.7 °F 23.1 °F 28.4 °F 78% 29.89 in 10.0 mi WNW 21.9 mph 34.5 mph N/A   Scattered Clouds
8:15 AM 34.7 °F 23.1 °F 28.4 °F 78% 29.89 in 10.0 mi WNW 21.9 mph 36.8 mph N/A   Scattered Clouds
8:35 AM 34.7 °F 22.5 °F 28.2 °F 77% 29.90 in 10.0 mi WNW 24.2 mph 35.7 mph N/A   Scattered Clouds
8:55 AM 34.9 °F 22.5 °F 27.7 °F 75% 29.91 in 10.0 mi WNW 25.3 mph 35.7 mph N/A   Clear
9:15 AM 35.8 °F 23.7 °F 26.4 °F 69% 29.92 in 10.0 mi NW 25.3 mph 34.5 mph N/A   Clear
9:35 AM 36.9 °F 25.1 °F 24.1 °F 60% 29.92 in 10.0 mi WNW 25.3 mph 32.2 mph N/A   Clear
9:55 AM 37.4 °F 25.9 °F 22.6 °F 55% 29.91 in 10.0 mi WNW 25.3 mph 39.1 mph N/A   Clear
10:15 AM 37.8 °F 27.4 °F 22.1 °F 53% 29.93 in 10.0 mi WNW 20.7 mph 27.6 mph N/A   Clear
10:35 AM 39.2 °F 29.0 °F 21.4 °F 49% 29.93 in 10.0 mi WNW 21.9 mph 29.9 mph N/A   Clear
10:55 AM 39.7 °F 30.6 °F 21.6 °F 48% 29.94 in 10.0 mi WNW 18.4 mph 25.3 mph N/A   Clear
11:15 AM 40.8 °F 30.9 °F 21.2 °F 46% 29.94 in 10.0 mi WNW 23.0 mph 31.1 mph N/A   Clear
11:35 AM 41.5 °F 32.6 °F 21.0 °F 44% 29.94 in 10.0 mi WNW 19.6 mph 26.5 mph N/A   Clear
11:55 AM 42.6 °F 34.3 °F 21.0 °F 42% 29.94 in 10.0 mi NW 18.4 mph 26.5 mph N/A   Clear
12:15 PM 43.0 °F 34.5 °F 21.6 °F 43% 29.94 in 10.0 mi WNW 19.6 mph 26.5 mph N/A   Clear
12:35 PM 43.0 °F 35.4 °F 21.2 °F 42% 29.94 in 10.0 mi WNW 16.1 mph 26.5 mph N/A   Clear
12:55 PM 43.5 °F 36.1 °F 20.8 °F 41% 29.93 in 10.0 mi WNW 16.1 mph 29.9 mph N/A   Clear
1:15 PM 44.4 °F 36.6 °F 20.8 °F 39% 29.94 in 10.0 mi NW 18.4 mph 27.6 mph N/A   Clear
1:35 PM 44.8 °F 37.1 °F 20.3 °F 38% 29.93 in 10.0 mi WNW 18.4 mph 32.2 mph N/A   Clear
1:55 PM 45.0 °F 37.6 °F 18.3 °F 35% 29.92 in 10.0 mi WNW 17.3 mph 33.4 mph N/A   Clear
2:15 PM 45.9 °F 38.5 °F 18.7 °F 34% 29.93 in 10.0 mi WNW 18.4 mph 28.8 mph N/A   Clear
2:35 PM 45.7 °F 37.4 °F 17.8 °F 33% 29.93 in 10.0 mi WNW 23.0 mph 31.1 mph N/A   Clear
2:55 PM 46.6 °F - 17.8 °F 32% 29.93 in 10.0 mi NW 25.3 mph 32.2 mph N/A   Clear
3:15 PM 45.9 °F 38.5 °F 18.3 °F 33% 29.93 in 10.0 mi WNW 18.4 mph 28.8 mph N/A   Clear
3:35 PM 45.5 °F 37.1 °F 17.6 °F 33% 29.94 in 10.0 mi WNW 23.0 mph 35.7 mph N/A   Clear
3:55 PM 45.5 °F 38.1 °F 18.0 °F 33% 29.94 in 10.0 mi NW 18.4 mph 31.1 mph N/A   Clear
4:15 PM 45.5 °F 38.9 °F 18.0 °F 33% 29.94 in 10.0 mi WNW 15.0 mph 21.9 mph N/A   Clear
4:35 PM 45.3 °F 39.0 °F 18.0 °F 34% 29.95 in 10.0 mi WNW 13.8 mph 25.3 mph N/A   Clear
4:55 PM 44.8 °F 38.0 °F 17.6 °F 34% 29.95 in 10.0 mi NW 15.0 mph 21.9 mph N/A   Clear
5:15 PM 44.6 °F 38.1 °F 17.6 °F 34% 29.96 in 10.0 mi NW 13.8 mph 24.2 mph N/A   Clear
5:35 PM 43.9 °F 37.2 °F 17.6 °F 35% 29.96 in 10.0 mi NW 13.8 mph 23.0 mph N/A   Clear
5:55 PM 43.0 °F 36.8 °F 18.9 °F 38% 29.97 in 10.0 mi NW 11.5 mph 17.3 mph N/A   Clear
6:15 PM 42.1 °F 36.1 °F 19.0 °F 40% 29.97 in 10.0 mi WNW 10.4 mph - N/A   Clear
6:35 PM 41.5 °F 36.4 °F 19.4 °F 41% 29.98 in 10.0 mi NW 8.1 mph - N/A   Clear
6:55 PM 41.0 °F 37.1 °F 19.0 °F 41% 29.99 in 10.0 mi WNW 5.8 mph - N/A   Clear
7:15 PM 40.5 °F 36.5 °F 18.5 °F 41% 30.00 in 10.0 mi NW 5.8 mph - N/A   Clear
7:35 PM 40.1 °F 34.7 °F 18.7 °F 42% 30.00 in 10.0 mi NW 8.1 mph - N/A   Clear
7:55 PM 39.6 °F 34.0 °F 18.5 °F 43% 30.01 in 10.0 mi NW 8.1 mph - N/A   Clear
8:15 PM 39.2 °F 35.0 °F 19.4 °F 45% 30.01 in 10.0 mi NW 5.8 mph - N/A   Clear
8:35 PM 38.8 °F 33.8 °F 20.7 °F 48% 30.02 in 10.0 mi NW 6.9 mph - N/A   Clear
8:55 PM 38.5 °F 31.6 °F 21.2 °F 50% 30.01 in 10.0 mi NW 10.4 mph - N/A   Clear
9:15 PM 38.3 °F 31.9 °F 21.4 °F 51% 30.01 in 10.0 mi WNW 9.2 mph - N/A   Clear
9:35 PM 37.8 °F 33.3 °F 21.2 °F 51% 30.02 in 10.0 mi NW 5.8 mph - N/A   Clear
9:55 PM 37.4 °F 32.1 °F 19.9 °F 49% 30.01 in 10.0 mi WNW 6.9 mph - N/A   Clear
10:15 PM 36.5 °F 32.7 °F 19.2 °F 50% 30.01 in 10.0 mi West 4.6 mph - N/A   Clear
10:35 PM 36.5 °F 29.7 °F 18.5 °F 48% 30.00 in 10.0 mi West 9.2 mph - N/A   Clear
10:55 PM 35.8 °F 28.8 °F 18.1 °F 49% 30.00 in 10.0 mi WNW 9.2 mph - N/A   Clear
11:15 PM 35.4 °F 28.4 °F 18.5 °F 50% 30.00 in 10.0 mi West 9.2 mph - N/A   Clear
11:35 PM 34.9 °F 29.0 °F 18.5 °F 51% 30.00 in 10.0 mi WNW 6.9 mph - N/A   Clear
11:55 PM 34.7 °F 28.8 °F 19.2 °F 53% 30.01 in 10.0 mi NW 6.9 mph - N/A   Clear